Weather History for KMMH - August, 2013

Change the Weather History Date:

Saturday, August 24, 2013

  Actual Average (KBIH) Record (KBIH)
Temperature  
Mean Temperature 55 °F 74 °F  
Max Temperature 77 °F 95 °F 102 °F (2011)
Min Temperature 33 °F 52 °F 41 °F (1978)
Degree Days  
Heating Degree Days 10 0  
Month to date heating degree days 0  
Since 1 June heating degree days 20  
Since 1 July heating degree days 1  
Cooling Degree Days 0 9  
Month to date cooling degree days 257  
Year to date cooling degree days 921  
Since 1 June cooling degree days 853  
Growing Degree Days 5 (Base 50)    
Moisture  
Dew Point 27 °F    
Average Humidity 37    
Maximum Humidity 75    
Minimum Humidity 12    
Precipitation  
Precipitation 0.00 in 0.00 in 0.03 in (1982)
Month to date precipitation 0.10  
Year to date precipitation 3.33  
Snow  
Snow 0.00 in 0.00 in - ()
Month to date snowfall 0.0  
Since 1 June snowfall 0.0  
Since 1 July snowfall 0.0  
Snow Depth -    
Sea Level Pressure  
Sea Level Pressure 30.13 in    
Wind  
Wind Speed 5 mph (SW)    
Max Wind Speed 26 mph    
Max Gust Speed 43 mph    
Visibility 10 miles    
Events      
T = Trace of Precipitation, MM = Missing Value Source: NWS Daily Summary

Daily Weather History Graph

Daily Weather History Graph

Search for Another Location

Airport or City:

Trip Planner

Search our weather history database for the weather conditions in past years. The results will help you decide how hot, cold, wet, or windy it might be!

Date:

Astronomy

Aug. 24, 2013 Rise Set
Actual Time 6:19 AM PDT 7:35 PM PDT
Civil Twilight 5:51 AM PDT 8:02 PM PDT
Nautical Twilight 5:19 AM PDT 8:35 PM PDT
Astronomical Twilight 4:45 AM PDT 9:09 PM PDT
Moon 9:38 PM PDT (8/24) 10:18 AM PDT (8/24)
Length of Visible Light 14h 10m
Length of Day
13h 16m
Waning Gibbous, 83% of the Moon is Illuminated
Aug 24
Waning Gibbous
Aug 28
Last Quarter
Sep 5
New
Sep 12
First Quarter
Sep 19
Full

Hourly Weather History & Observations

Time (PDT) Temp. Windchill Dew Point Humidity Pressure Visibility Wind Dir Wind Speed Gust Speed Precip Events Conditions
12:15 AM 46.4 °F - 30.2 °F 53% 30.14 in 10.0 mi Calm Calm - N/A   Clear
12:35 AM 46.4 °F - 30.2 °F 53% 30.14 in 10.0 mi Calm Calm - N/A   Clear
12:55 AM 48.2 °F - 32.0 °F 54% 30.13 in 10.0 mi Calm Calm - N/A   Clear
1:15 AM 48.2 °F - 32.0 °F 54% 30.14 in 10.0 mi West 4.6 mph - N/A   Clear
1:35 AM 41.0 °F - 30.2 °F 65% 30.13 in 10.0 mi Calm Calm - N/A   Clear
1:55 AM 41.0 °F - 30.2 °F 65% 30.13 in 10.0 mi Calm Calm - N/A   Clear
2:15 AM 41.0 °F 38.0 °F 28.4 °F 61% 30.13 in 10.0 mi NW 4.6 mph - N/A   Clear
2:35 AM 41.0 °F - 30.2 °F 65% 30.14 in 10.0 mi Calm Calm - N/A   Clear
2:55 AM 41.0 °F 38.0 °F 30.2 °F 65% 30.13 in 10.0 mi North 4.6 mph - N/A   Clear
3:15 AM 41.0 °F 37.1 °F 30.2 °F 65% 30.13 in 10.0 mi NNW 5.8 mph - N/A   Clear
3:35 AM 41.0 °F - 28.4 °F 61% 30.13 in 10.0 mi Calm Calm - N/A   Clear
3:55 AM 41.0 °F - 28.4 °F 61% 30.13 in 10.0 mi Calm Calm - N/A   Clear
4:15 AM 44.6 °F - 30.2 °F 57% 30.13 in 10.0 mi Calm Calm - N/A   Clear
4:35 AM 41.0 °F 39.0 °F 26.6 °F 57% 30.13 in 10.0 mi North 3.5 mph - N/A   Clear
4:55 AM 37.4 °F - 28.4 °F 70% 30.13 in 10.0 mi Calm Calm - N/A   Clear
5:15 AM 35.6 °F - 26.6 °F 70% 30.13 in 10.0 mi Calm Calm - N/A   Clear
5:35 AM 37.4 °F 34.9 °F 28.4 °F 70% 30.13 in 10.0 mi NW 3.5 mph - N/A   Clear
5:55 AM 33.8 °F 30.8 °F 26.6 °F 75% 30.14 in 10.0 mi North 3.5 mph - N/A   Clear
6:15 AM 33.8 °F 29.6 °F 26.6 °F 75% 30.14 in 10.0 mi NNW 4.6 mph - N/A   Clear
6:35 AM 39.2 °F - 28.4 °F 65% 30.14 in 10.0 mi Calm Calm - N/A   Clear
6:55 AM 33.8 °F - 26.6 °F 75% 30.14 in 10.0 mi Calm Calm - N/A   Clear
7:15 AM 39.2 °F - 28.4 °F 65% 30.14 in 10.0 mi Calm Calm - N/A   Clear
7:35 AM 44.6 °F - 30.2 °F 57% 30.14 in 10.0 mi Calm Calm - N/A   Clear
7:55 AM 50.0 °F - 30.2 °F 47% 30.14 in 10.0 mi Calm Calm - N/A   Clear
8:15 AM 55.4 °F - 28.4 °F 36% 30.14 in 10.0 mi SE 4.6 mph - N/A   Clear
8:35 AM 59.0 °F - 32.0 °F 36% 30.14 in 10.0 mi SE 4.6 mph - N/A   Clear
8:55 AM 60.8 °F - 32.0 °F 34% 30.14 in 10.0 mi SE 4.6 mph - N/A   Clear
9:15 AM 62.6 °F - 30.2 °F 30% 30.14 in 10.0 mi SSE 5.8 mph - N/A   Clear
9:35 AM 66.2 °F - 28.4 °F 24% 30.14 in 10.0 mi SE 5.8 mph - N/A   Clear
9:55 AM 66.2 °F - 30.2 °F 26% 30.14 in 10.0 mi East 9.2 mph - N/A   Clear
10:15 AM 68.0 °F - 26.6 °F 21% 30.15 in 10.0 mi ESE 6.9 mph - N/A   Clear
10:35 AM 69.8 °F - 23.0 °F 17% 30.15 in 10.0 mi ESE 6.9 mph - N/A   Clear
10:55 AM 69.8 °F - 23.0 °F 17% 30.15 in 10.0 mi ESE 8.1 mph - N/A   Clear
11:15 AM 71.6 °F - 23.0 °F 16% 30.14 in 10.0 mi SE 9.2 mph - N/A   Clear
11:35 AM 73.4 °F - 21.2 °F 14% 30.14 in 10.0 mi SSE 5.8 mph - N/A   Clear
11:55 AM 73.4 °F - 21.2 °F 14% 30.13 in 10.0 mi SSE 12.7 mph 17.3 mph N/A   Clear
12:15 PM 75.2 °F - 21.2 °F 13% 30.13 in 10.0 mi ESE 10.4 mph 17.3 mph N/A   Clear
12:35 PM 75.2 °F - 19.4 °F 12% 30.12 in 10.0 mi East 6.9 mph 16.1 mph N/A   Clear
12:55 PM 77.0 °F - 19.4 °F 12% 30.12 in 10.0 mi East 10.4 mph 18.4 mph N/A   Clear
1:15 PM 75.2 °F - 19.4 °F 12% 30.12 in 10.0 mi ESE 9.2 mph 20.7 mph N/A   Clear
1:35 PM 77.0 °F - 19.4 °F 12% 30.11 in 10.0 mi SSE 11.5 mph 17.3 mph N/A   Clear
1:55 PM 77.0 °F - 21.2 °F 12% 30.12 in 10.0 mi SSE 6.9 mph - N/A   Clear
2:15 PM 77.0 °F - 26.6 °F 16% 30.10 in 10.0 mi NW 23.0 mph 31.1 mph N/A   Scattered Clouds
2:35 PM 77.0 °F - 23.0 °F 13% 30.09 in 10.0 mi South 12.7 mph 23.0 mph N/A   Clear
2:55 PM 77.0 °F - 23.0 °F 13% 30.10 in 10.0 mi WSW 8.1 mph 23.0 mph N/A   Scattered Clouds
3:15 PM 77.0 °F - 26.6 °F 16% 30.09 in 10.0 mi West 24.2 mph 35.7 mph N/A   Clear
3:35 PM 75.2 °F - 28.4 °F 18% 30.09 in 10.0 mi WNW 25.3 mph 42.6 mph N/A   Clear
3:55 PM 75.2 °F - 28.4 °F 18% 30.09 in 10.0 mi West 25.3 mph 32.2 mph N/A   Clear
4:15 PM 75.2 °F - 30.2 °F 19% 30.09 in 10.0 mi WNW 25.3 mph 32.2 mph N/A   Clear
4:35 PM 75.2 °F - 30.2 °F 19% 30.08 in 10.0 mi West 26.5 mph 39.1 mph N/A   Clear
4:55 PM 75.2 °F - 30.2 °F 19% 30.08 in 10.0 mi WSW 16.1 mph 27.6 mph N/A   Clear
5:15 PM 75.2 °F - 28.4 °F 18% 30.08 in 10.0 mi WSW 11.5 mph 23.0 mph N/A   Clear
5:35 PM 73.4 °F - 30.2 °F 20% 30.08 in 10.0 mi West 19.6 mph 26.5 mph N/A   Clear
5:55 PM 73.4 °F - 28.4 °F 19% 30.09 in 10.0 mi WSW 16.1 mph 25.3 mph N/A   Clear
6:15 PM 71.6 °F - 28.4 °F 20% 30.08 in 10.0 mi WSW 20.7 mph 25.3 mph N/A   Clear
6:35 PM 71.6 °F - 24.8 °F 17% 30.08 in 10.0 mi SW 12.7 mph - N/A   Clear
6:55 PM 69.8 °F - 26.6 °F 20% 30.08 in 10.0 mi WSW 17.3 mph 25.3 mph N/A   Clear
7:15 PM 68.0 °F - 26.6 °F 21% 30.09 in 10.0 mi West 19.6 mph 27.6 mph N/A   Clear
7:35 PM 66.2 °F - 26.6 °F 23% 30.09 in 10.0 mi SW 17.3 mph 25.3 mph N/A   Clear
7:55 PM 66.2 °F - 26.6 °F 23% 30.09 in 10.0 mi SW 24.2 mph 27.6 mph N/A   Clear
8:15 PM 66.2 °F - 26.6 °F 23% 30.12 in 10.0 mi SSE 6.9 mph 19.6 mph N/A   Clear
8:35 PM 60.8 °F - 30.2 °F 31% 30.12 in 10.0 mi NW 10.4 mph 24.2 mph N/A   Clear
8:55 PM 60.8 °F - 30.2 °F 31% 30.13 in 10.0 mi WNW 5.8 mph - N/A   Clear
9:15 PM 59.0 °F - 28.4 °F 31% 30.14 in 10.0 mi SSE 3.5 mph - N/A   Clear
9:35 PM 55.4 °F - 28.4 °F 36% 30.15 in 10.0 mi Calm Calm - N/A   Clear
9:55 PM 57.2 °F - 30.2 °F 36% 30.16 in 10.0 mi Calm Calm - N/A   Clear
10:15 PM 53.6 °F - 28.4 °F 38% 30.15 in 10.0 mi Calm Calm - N/A   Clear
10:35 PM 53.6 °F - 30.2 °F 41% 30.16 in 10.0 mi Calm Calm - N/A   Clear
10:55 PM 51.8 °F - 30.2 °F 44% 30.17 in 10.0 mi Calm Calm - N/A   Clear
11:15 PM 48.2 °F - 28.4 °F 46% 30.17 in 10.0 mi Calm Calm - N/A   Clear
11:35 PM 46.4 °F - 28.4 °F 50% 30.17 in 10.0 mi Calm Calm - N/A   Clear
11:55 PM 48.2 °F - 28.4 °F 46% 30.17 in 10.0 mi North 3.5 mph - N/A   Clear